This is the latest recevied weather packets stored in our database for station/object IR3AS. If no packets are shown the sender has not sent any weather packets the latest 10 day(s).
| Time | Temp. | Humidity | Pressure | Rain* | Wind** | Luminosity | Snow |
|---|---|---|---|---|---|---|---|
| 1777726259 | 13.33° C | 55% | 863.9 hPa | 0 mm | - | - | - |
| 1777725959 | 12.78° C | 56% | 864 hPa | 0 mm | - | - | - |
| 1777725659 | 11.67° C | 58% | 863.9 hPa | 0 mm | - | - | - |
| 1777725359 | 11.11° C | 57% | 863.7 hPa | 0 mm | - | - | - |
| 1777725059 | 10.56° C | 57% | 863.8 hPa | 0 mm | - | - | - |
| 1777724759 | 10.56° C | 57% | 863.7 hPa | 0 mm | - | - | - |
| 1777724459 | 10° C | 58% | 863.8 hPa | 0 mm | - | - | - |
| 1777724159 | 10° C | 57% | 864.2 hPa | 0 mm | - | - | - |
| 1777723859 | 10° C | 57% | 864 hPa | 0 mm | - | - | - |
| 1777723559 | 10° C | 56% | 863.9 hPa | 0 mm | - | - | - |
| 1777723259 | 10° C | 56% | 863.8 hPa | 0 mm | - | - | - |
| 1777722959 | 10° C | 56% | 863.9 hPa | 0 mm | - | - | - |
| 1777722659 | 10.56° C | 56% | 863.8 hPa | 0 mm | - | - | - |
| 1777722359 | 10.56° C | 56% | 863.5 hPa | 0 mm | - | - | - |
| 1777722059 | 10.56° C | 56% | 863.5 hPa | 0 mm | - | - | - |
| 1777721759 | 10.56° C | 55% | 863.7 hPa | 0 mm | - | - | - |
| 1777721459 | 11.11° C | 55% | 864 hPa | 0 mm | - | - | - |
| 1777721159 | 11.11° C | 54% | 863.5 hPa | 0 mm | - | - | - |
| 1777720859 | 11.67° C | 53% | 863.7 hPa | 0 mm | - | - | - |
| 1777720559 | 12.22° C | 51% | 863.9 hPa | 0 mm | - | - | - |
| 1777720259 | 12.22° C | 53% | 864 hPa | 0 mm | - | - | - |
| 1777719959 | 11.11° C | 54% | 864.2 hPa | 0 mm | - | - | - |
| 1777719659 | 11.67° C | 53% | 864 hPa | 0 mm | - | - | - |
| 1777719403 | 11.67° C | 54% | 864.3 hPa | 0 mm | - | - | - |
| 1777719359 | 11.67° C | 54% | 864.3 hPa | 0 mm | - | - | - |
* Rain latest hour (hover to see other rain measurements)
** Current wind speed in m/s (hover to see current wind gust speed)